Epoch = 2000 Feb. 26.0 TT T = 2000 Feb. 14.1600 TT Peri. = 130.5069 e = 0.575215 Node = 352.1471 2000.0 q = 1.700254 AU Incl. = 11.1263 a = 4.002627 AU n = 0.1230797 P = 8.008 years
m1 = 17 + 5 logΔ + 10 log r [ ,-20] ( 〜2000年 1月25日) m1 = -4.5 + 5 logΔ + 85 log r(t - 69) [-20, ] (2000年 1月25日〜 )